Regional Weather Roundup
Issued by NWS

Home | Current Version | Previous Version | Graphics & Text | Print | Product List | Glossary On
Versions: 1 2 3 4 5 6 7 8 9 10 11 12 13 14 15 16 17 18 19 20 21 22 23 24 25 26 27 28 29 30 31 32 33 34 35 36 37 38 39 40 41 42 43 44 45 46 47 48 49 50
000
ASUS43 KLOT 250008
RWRIL

ILLINOIS REGIONAL WEATHER ROUNDUP
NATIONAL WEATHER SERVICE CHICAGO/ROMEOVILLE IL
700 PM CDT SAT SEP 24 2016

NOTE: "FAIR" INDICATES FEW OR NO CLOUDS BELOW 12,000 FEET WITH NO
SIGNIFICANT WEATHER AND/OR OBSTRUCTIONS TO VISIBILITY.

* THESE STATIONS ARE NOT UNDER NWS QUALITY CONTROL. THEY ALSO MAY NOT
  REPORT WEATHER SUCH AS PRECIPITATION OR FOG.

ILZ001-002-007-009-015-016-024-250100-
NORTHWEST ILLINOIS

CITY           SKY/WX    TMP DP  RH WIND       PRES   REMARKS
MOLINE         CLEAR     75  68  78 E7        30.03S
6HR MIN TEMP:  75; 6HR MAX TEMP:  82;

STERLING*      CLEAR     74  68  81 E7        30.07S
SAVANNA*       CLEAR     74  67  78 E7        30.05F
$$

ILZ003-004-008-010-011-017-018-250100-
NORTH CENTRAL ILLINOIS

CITY           SKY/WX    TMP DP  RH WIND       PRES   REMARKS
ROCKFORD       CLEAR     71  63  75 E6        30.11S
6HR MIN TEMP:  71; 6HR MAX TEMP:  76;

FREEPORT*      CLEAR     69  64  83 E7        30.11S
ROCHELLE*      CLEAR     71  65  80 E7        30.09F
DE KALB*       CLEAR     69  64  83 E8        30.11F
$$

ILZ005-006-012>014-019>023-250100-
NORTHEAST ILLINOIS

CITY           SKY/WX    TMP DP  RH WIND       PRES   REMARKS
CHICAGO-OHARE  PTCLDY    69  62  78 E8        30.12F
6HR MIN TEMP:  69; 6HR MAX TEMP:  74;

CHICAGO-MIDWAY PTCLDY    72  63  73 E10       30.11F
6HR MIN TEMP:  72; 6HR MAX TEMP:  76;

AURORA         CLEAR     72  64  76 NE7       30.10F
6HR MIN TEMP:  72; 6HR MAX TEMP:  79;

LANSING*       CLEAR     71  66  86 NE6       30.11F
JOLIET*        CLEAR     73  66  77 E10       30.10S
WAUKEGAN       CLEAR     65  61  87 NE5       30.13S
6HR MIN TEMP:  65; 6HR MAX TEMP:  69;

DUPAGE AIRPORT CLEAR     70  62  76 E7        30.11F
6HR MIN TEMP:  70; 6HR MAX TEMP:  75;

KANKAKEE*      CLEAR     75  66  72 E7        30.09S
WHEELING       CLEAR     67  62  84 E5        30.13F
6HR MIN TEMP:  67; 6HR MAX TEMP:  71;

MORRIS*        CLEAR     73  65  75 E3        30.08S
ROMEOVILLE*    CLEAR     70  66  87 E9        30.10F
NORTHERLY ISL    N/A     69  64  84 NE8         N/A
$$

LMZ740>746-250100-
SOUTHERN LAKE MICHIGAN

STATION/POSITION SKY/WX   TEMP    WIND        PRES    VSBY  WAVE
                          AIR SEA DIR/SP/G                  HT/PER
                          (F)     (DEG/KT/KT) (MB)    (MI)  (FT/S)
SOUTHERN BUOY              70 72   90/ 14/ 16 1020.2F         1/ 3
WILMETTE HARBOR            68 66  100/  6/  8   N/A           2/ 5
HARRISON CRIB              71      70/ 11/ 12   N/A
BURNHAM HARBOR             69      50/  6/  8   N/A
CALUMET HARBOR             70                 1019.6F
BURNS HARBOR               69      80/  8/ 11 1020.3F
MICHIGAN CITY              73      50/  6/  7   N/A
MICHIGAN CITY 6N           71 70   80/  8/ 10   N/A           2/ 3
ST. JOSEPH                 71 71   80/  8/ 10 1020.2F         1
$$

ILZ025>027-034>036-040-047-049-050-058-095>099-250100-
WEST-CENTRAL ILLINOIS

CITY           SKY/WX    TMP DP  RH WIND       PRES   REMARKS
QUINCY         CLEAR     81  65  58 SE3       30.01S HX  83
GALESBURG*     CLEAR    N/A N/A N/A MISG        N/A
MACOMB*        CLEAR     80  66  62 E6        30.04S HX  81
JACKSONVILLE*  CLEAR     82  65  55 S3        30.02S HX  83
PITTSFIELD*    CLEAR     80  67  63 CALM      30.03R HX  83
$$

ILZ028>032-037-038-041>044-048-051>054-059>061-250100-
CENTRAL ILLINOIS

CITY           SKY/WX    TMP DP  RH WIND       PRES   REMARKS
PONTIAC        CLEAR     79  69  73 E6        30.06F HX  81
BLOOMINGTON    PTCLDY    79  66  64 E6        30.06F HX  81
DECATUR        CLEAR     81  63  54 S7        30.04F HX  82
PEORIA         CLEAR     78  70  76 E6        30.03F HX  80
6HR MIN TEMP:  78; 6HR MAX TEMP:  87;

LACON*         CLEAR     77  66  69 E7        30.04S
SPRINGFIELD    CLEAR     82  63  52 SE6       30.02F HX  83
6HR MIN TEMP:  82; 6HR MAX TEMP:  91;

TAYLORVILLE    CLEAR     79  64  60 SE5       30.03F HX  80
6HR MIN TEMP:  79; 6HR MAX TEMP:  90;

$$

ILZ033-039-045-046-055>057-062-063-250100-
EAST-CENTRAL ILLINOIS

CITY           SKY/WX    TMP DP  RH WIND       PRES   REMARKS
CHAMPAIGN      PTCLDY    79  67  66 E8        30.06S HX  81
RANTOUL*       CLEAR     81  68  64 E8        30.07S HAZE    HX  84
MATTOON        CLEAR     78  65  63 SE3       30.04F HX  80
PARIS*         CLEAR     78  69  73 CALM      30.07F HX  80
$$

ILZ079-100>102-250100-
SOUTHWEST ILLINOIS

CITY           SKY/WX    TMP DP  RH WIND       PRES   REMARKS
ALTON          CLEAR     79  68  69 E6        30.02F HX  81
BELLEVILLE     CLEAR     80  69  70 SE5       30.00F HX  83
CAHOKIA*       CLEAR     82  66  58 S3        30.00F HX  84
SPARTA*        CLEAR     80  71  74 CALM      30.04S HX  83
$$

ILZ064>066-069>071-074>076-080>082-084>086-088>090-092>094-250100-
SOUTH-CENTRAL ILLINOIS

CITY           SKY/WX    TMP DP  RH WIND       PRES   REMARKS
CARBONDALE     CLEAR     77  73  87 E3        30.02F
6HR MIN TEMP:  77; 6HR MAX TEMP:  90;

CAIRO*         CLEAR     79  72  78 CALM      30.01F HX  82
EFFINGHAM*     CLEAR     76  71  85 CALM      30.06S
MARION         CLEAR     79  72  78 CALM      30.04S HX  82
MT. VERNON     CLEAR     75  68  78 CALM      30.04F
CENTRALIA*     CLEAR     80  72  78 CALM      30.03S HX  83
SALEM*         CLEAR     81  69  65 CALM      30.04F HX  84
METROPOLIS*    CLEAR     80  71  74 CALM      30.03S HX  83
$$

ILZ067-068-072-073-078-083-087-091-250100-
SOUTHEAST ILLINOIS

CITY           SKY/WX    TMP DP  RH WIND       PRES   REMARKS
LAWRENCEVILLE  PTCLDY    79  67  66 NE6       30.05F HX  81
FLORA*         CLEAR     80  70  71 CALM      30.04F HX  83
FAIRFIELD*     CLEAR     76  70  81 CALM      30.03F
HARRISBURG*    CLEAR     82  71  69 CALM      30.04S HX  86
ROBINSON*      CLEAR     77  68  73 E6        30.06F
CARMI*         CLEAR     79  69  72 CALM      30.03S HX  82
$$

ABBREVIATIONS USED IN REMARKS
   TC - TEMPERATURE IN CELSIUS
  WCI - WIND CHILL INDEX
   HX - HEAT INDEX
  VSB - VISIBILITY
$$





USA.gov is the U.S. government's official web portal to all federal, state and local government web resources and services.